Wind_Speed
21 31 28 29 32 26 29 31 32 37 33 24 12 10 10 14 9 4 3 5 7 6
24 27 29 30 24 26 29 31 30 39 37 24 14 12 14 16 10 6 4 3 4 8
27 22 27 28 27 27 26 29 30 33 34 30 22 19 19 20 16 12 5 3 5 3
23 24 25 25 27 28 28 25 28 29 32 28 28 25 24 21 18 17 17 12 6 4
23 25 24 24 26 30 27 24 26 29 29 26 25 25 24 22 24 21 19 17 15 15
26 23 24 21 27 29 27 23 28 28 28 25 22 23 24 26 23 21 19 19 17 15
24 21 24 22 21 24 25 24 25 26 27 26 25 21 21 21 25 24 21 19 17 18
23 22 22 24 22 19 24 25 24 27 27 28 23 22 18 20 19 22 24 22 23 18
22 22 20 22 23 20 21 18 22 25 28 27 25 25 20 16 18 20 23 25 25 19
21 21 20 24 22 23 20 21 16 21 23 25 24 27 23 18 19 17 18 22 23 20
21 20 20 22 25 22 20 21 18 16 21 23 23 27 26 21 21 20 17 19 21 23
20 19 19 19 23 23 22 20 20 18 17 22 25 25 25 23 23 21 17 18 17 19
19 19 18 19 19 20 20 21 21 19 20 19 22 24 24 22 22 23 20 18 18 18
17 17 18 19 19 19 20 20 20 22 20 23 21 25 25 24 22 20 18 18 20 21
Wind_Direction
7 3 349 342 336 352 348 344 343 342 341 342 348 342 346 341 338 307 280 251 246 250
10 1 350 345 348 354 355 354 354 359 7 26 23 20 14 347 351 350 315 296 273 262
2 355 353 356 355 356 358 3 4 4 15 24 26 18 14 18 17 12 355 6 313 247
358 348 1 3 355 353 1 11 10 8 13 21 25 21 24 22 29 28 26 17 339 284
359 359 5 5 2 356 5 15 14 11 13 18 25 24 22 22 24 20 10 360 358 355
359 6 1 4 9 3 6 17 19 15 16 16 22 28 25 24 21 15 9 14 2 337
358 3 1 358 7 13 10 11 14 18 16 19 18 18 24 17 19 19 14 12 2 359
359 1 4 357 8 11 17 14 17 14 16 11 11 18 19 24 16 23 21 14 10 7
1 1 7 2 2 9 11 18 21 17 15 11 6 22 16 23 21 18 15 19 17 18
1 1 5 7 1 3 7 8 16 26 18 12 8 19 20 21 20 19 18 16 18 10
358 2 3 2 1 3 2 10 6 8 16 13 7 16 21 18 15 15 26 20 17 18
356 358 360 359 358 2 4 1 6 4 10 15 11 7 15 18 16 9 12 17 16 13
357 357 358 356 356 0 1 2 4 6 8 8 12 8 10 12 12 10 8 11 12 5
1 2 358 356 357 1 3 5 5 6 8 11 9 7 6 6 6 6 1 4 357 358
Height
822 819 815 810 803 799 793 786 778 767 759 754 753 752 751 749 747 747 747 747 748 749
823 821 816 810 804 800 795 788 781 770 762 757 754 753 752 750 748 747 746 746 747 747
824 820 816 810 806 800 795 790 783 775 768 762 759 757 754 751 749 748 747 747 747 746
824 819 817 812 807 801 797 792 786 780 773 769 764 760 757 754 752 750 748 746 745 745
825 820 818 813 808 803 799 794 789 784 778 773 769 766 762 759 755 753 751 749 747 745
826 822 818 814 810 805 801 796 792 787 782 777 773 770 766 763 759 756 754 751 748 745
827 823 820 815 812 807 803 799 794 790 786 780 776 772 768 766 762 759 755 752 749 746
828 824 821 816 813 809 805 801 798 793 788 783 778 774 770 768 765 762 758 754 751 747
828 825 821 817 813 810 806 803 799 796 791 786 781 776 772 769 767 764 761 757 753 749
829 826 823 819 814 811 807 804 800 797 793 789 784 778 774 772 769 766 764 760 756 752
830 827 824 820 816 812 809 805 802 798 795 791 786 782 777 774 770 768 765 762 758 755
831 827 824 820 817 813 810 806 803 799 796 793 789 784 779 775 772 769 766 763 761 757
832 829 825 822 818 815 811 807 804 801 798 795 791 786 782 778 774 771 768 765 763 759
833 829 826 823 819 816 812 808 804 801 798 795 792 788 784 780 776 772 769 766 763 760